| time (UTC) | temp F | wind direction | speed knots | gust knots | rain 1hr in | rain 24hr in | rain mn in | humidity % | barometer mb |
| 20260503031533 | 38 | 220 | 5.2 | 0.0 | 0.00 | 0.00 | 0.00 | 63 | 985.3 |
| 20260503024533 | 38 | 233 | 5.2 | 0.0 | 0.00 | 0.00 | 0.00 | 58 | 986.1 |
| 20260503023053 | 39 | 238 | 5.2 | 0.0 | 0.00 | 0.00 | 0.00 | 63 | 985.5 |
| 20260503021533 | 39 | 236 | 7.0 | 0.0 | 0.00 | 0.00 | 0.00 | 63 | 985.5 |
| 20260503020101 | 39 | 238 | 6.1 | 0.0 | 0.00 | 0.00 | 0.00 | 63 | 985.5 |
| 20260503014533 | 40 | 240 | 7.0 | 0.0 | 0.00 | 0.00 | 0.00 | 58 | 985.1 |
| 20260503013051 | 40 | 243 | 6.1 | 0.0 | 0.00 | 0.00 | 0.00 | 58 | 985.1 |
| 20260503011533 | 41 | 237 | 5.2 | 0.0 | 0.00 | 0.00 | 0.00 | 58 | 985.1 |
| 20260503010059 | 41 | 238 | 5.2 | 0.0 | 0.00 | 0.00 | 0.00 | 58 | 985.1 |
| 20260503004533 | 42 | 236 | 5.2 | 0.0 | 0.00 | 0.00 | 0.00 | 46 | 985.9 |
| 20260503003047 | 43 | 238 | 4.3 | 0.0 | 0.00 | 0.00 | 0.00 | 46 | 986.2 |
| 20260503001534 | 44 | 246 | 4.3 | 0.0 | 0.00 | 0.00 | 0.00 | 46 | 986.2 |
| 20260503000100 | 45 | 252 | 4.3 | 0.0 | 0.00 | 0.00 | 0.00 | 46 | 986.2 |
| 20260502234534 | 45 | 262 | 5.2 | 0.0 | 0.00 | 0.00 | 0.00 | 39 | 985.9 |
| 20260502233046 | 46 | 266 | 7.0 | 0.0 | 0.00 | 0.00 | 0.00 | 39 | 986.0 |
| 20260502231534 | 46 | 266 | 7.8 | 0.0 | 0.00 | 0.00 | 0.00 | 39 | 986.0 |
| 20260502230100 | 47 | 266 | 8.7 | 0.0 | 0.00 | 0.00 | 0.00 | 39 | 986.0 |
| 20260502224534 | 47 | 268 | 9.6 | 0.0 | 0.00 | 0.00 | 0.00 | 38 | 986.3 |
| 20260502223052 | 47 | 269 | 10.4 | 0.0 | 0.00 | 0.00 | 0.00 | 38 | 987.0 |
| 20260502221534 | 48 | 268 | 10.4 | 0.0 | 0.00 | 0.00 | 0.00 | 38 | 987.0 |
| 20260502220059 | 48 | 267 | 10.4 | 0.0 | 0.00 | 0.00 | 0.00 | 38 | 987.0 |
| 20260502214534 | 48 | 268 | 10.4 | 0.0 | 0.00 | 0.00 | 0.00 | 38 | 987.1 |
| 20260502213052 | 48 | 261 | 9.6 | 0.0 | 0.00 | 0.00 | 0.00 | 40 | 986.9 |
| 20260502211534 | 48 | 259 | 9.6 | 0.0 | 0.00 | 0.00 | 0.00 | 40 | 986.8 |
| 20260502204534 | 48 | 259 | 10.4 | 0.0 | 0.00 | 0.00 | 0.00 | 37 | 987.2 |
| 20260502203052 | 48 | 264 | 9.6 | 0.0 | 0.00 | 0.00 | 0.00 | 36 | 987.7 |
| 20260502201534 | 48 | 266 | 9.6 | 0.0 | 0.00 | 0.00 | 0.00 | 36 | 987.7 |
| 20260502200059 | 48 | 269 | 9.6 | 0.0 | 0.00 | 0.00 | 0.00 | 36 | 987.7 |
| 20260502194534 | 47 | 270 | 9.6 | 0.0 | 0.00 | 0.00 | 0.00 | 40 | 987.9 |
| 20260502193047 | 47 | 271 | 9.6 | 0.0 | 0.00 | 0.00 | 0.00 | 40 | 987.9 |
| 20260502191534 | 47 | 274 | 10.4 | 0.0 | 0.00 | 0.00 | 0.00 | 40 | 987.9 |
| 20260502190100 | 47 | 271 | 9.6 | 0.0 | 0.00 | 0.00 | 0.00 | 40 | 987.9 |
| 20260502184534 | 46 | 272 | 9.6 | 0.0 | 0.00 | 0.00 | 0.00 | 44 | 988.0 |
| 20260502183053 | 46 | 276 | 8.7 | 0.0 | 0.00 | 0.00 | 0.00 | 40 | 988.0 |
| 20260502181533 | 47 | 285 | 7.8 | 0.0 | 0.00 | 0.00 | 0.00 | 40 | 988.0 |
| 20260502180104 | 47 | 286 | 7.8 | 0.0 | 0.00 | 0.00 | 0.00 | 40 | 988.0 |
| 20260502163054 | 45 | 279 | 7.8 | 0.0 | 0.00 | 0.00 | 0.00 | 41 | 987.4 |
| 20260502161533 | 44 | 276 | 7.0 | 0.0 | 0.00 | 0.00 | 0.00 | 41 | 987.4 |
| 20260502151534 | 42 | 286 | 6.1 | 0.0 | 0.00 | 0.00 | 0.00 | 49 | 987.6 |
| 20260502150105 | 42 | 289 | 6.1 | 0.0 | 0.00 | 0.00 | 0.00 | 49 | 987.6 |
| 20260502140106 | 39 | 318 | 5.2 | 0.0 | 0.00 | 0.00 | 0.00 | 56 | 988.3 |
| 20260502123051 | 35 | 329 | 3.5 | 0.0 | 0.00 | 0.00 | 0.00 | 79 | 988.2 |
| 20260502121534 | 34 | 330 | 3.5 | 0.0 | 0.00 | 0.00 | 0.00 | 79 | 988.2 |
| 20260502120108 | 33 | 326 | 4.3 | 0.0 | 0.00 | 0.00 | 0.00 | 79 | 988.2 |
| 20260502114534 | 32 | 322 | 4.3 | 0.0 | 0.00 | 0.00 | 0.00 | 85 | 988.0 |
| 20260502113056 | 32 | 317 | 2.6 | 0.0 | 0.00 | 0.00 | 0.00 | 86 | 987.8 |
| 20260502111534 | 31 | 318 | 2.6 | 0.0 | 0.00 | 0.00 | 0.00 | 86 | 987.8 |
| 20260502104533 | 31 | 308 | 2.6 | 0.0 | 0.00 | 0.00 | 0.00 | 85 | 987.6 |
| 20260502103052 | 31 | 292 | 2.6 | 0.0 | 0.00 | 0.00 | 0.00 | 88 | 987.9 |
| 20260502101534 | 31 | 293 | 2.6 | 0.0 | 0.00 | 0.00 | 0.00 | 88 | 987.9 |
| 20260502091533 | 31 | 302 | 2.6 | 0.0 | 0.00 | 0.00 | 0.00 | 88 | 987.4 |
| 20260502080103 | 31 | 317 | 3.5 | 0.0 | 0.00 | 0.00 | 0.00 | 82 | 987.2 |
| 20260502071533 | 32 | 321 | 3.5 | 0.0 | 0.00 | 0.00 | 0.00 | 74 | 986.7 |
| 20260502070100 | 32 | 322 | 4.3 | 0.0 | 0.00 | 0.00 | 0.00 | 74 | 986.7 |
| 20260502064534 | 32 | 315 | 4.3 | 0.0 | 0.00 | 0.00 | 0.00 | 72 | 987.8 |
| 20260502063053 | 32 | 311 | 3.5 | 0.0 | 0.00 | 0.00 | 0.00 | 71 | 987.7 |
| 20260502061533 | 32 | 313 | 3.5 | 0.0 | 0.00 | 0.00 | 0.00 | 71 | 987.6 |
| 20260502060111 | 33 | 317 | 4.3 | 0.0 | 0.00 | 0.00 | 0.00 | 71 | 987.6 |
| 20260502054534 | 33 | 320 | 4.3 | 0.0 | 0.00 | 0.00 | 0.00 | 71 | 986.9 |
| 20260502053052 | 33 | 319 | 4.3 | 0.0 | 0.00 | 0.00 | 0.00 | 73 | 987.3 |
| 20260502051533 | 33 | 320 | 4.3 | 0.0 | 0.00 | 0.00 | 0.00 | 73 | 987.3 |
| 20260502044534 | 34 | 322 | 5.2 | 0.0 | 0.00 | 0.00 | 0.00 | 70 | 986.8 |
| 20260502043051 | 34 | 322 | 4.3 | 0.0 | 0.00 | 0.00 | 0.00 | 73 | 987.0 |
| 20260502041533 | 34 | 325 | 4.3 | 0.0 | 0.00 | 0.00 | 0.00 | 73 | 987.0 |
| 20260502034533 | 34 | 321 | 5.2 | 0.0 | 0.00 | 0.00 | 0.00 | 61 | 986.6 |
| 20260502033053 | 35 | 340 | 4.3 | 0.0 | 0.00 | 0.00 | 0.00 | 64 | 986.0 |